Asheville, NC

5:24 PM EDT on October 20, 2019 (GMT -0400)
Asheville Regional

Weather History for KAVL - May, 2019

Change the Weather History Date:

Wednesday, May 1, 2019

  Actual Average Record
Temperature  
Mean Temperature 70 °F 59 °F  
Max Temperature 80 °F 72 °F 87 °F (1962)
Min Temperature 59 °F 47 °F 32 °F (1996)
Degree Days  
Heating Degree Days 0 6  
Month to date heating degree days 0 6  
Since 1 July heating degree days 3527 4078  
Cooling Degree Days 5 0  
Month to date cooling degree days 5 0  
Year to date cooling degree days 22 8  
Growing Degree Days 20 (Base 50)    
Moisture  
Dew Point 58 °F    
Average Humidity 66    
Maximum Humidity 90    
Minimum Humidity 42    
Precipitation  
Precipitation 0.00 in 0.11 in 2.35 in (1897)
Month to date precipitation 0.00 0.11  
Year to date precipitation 23.79 14.70  
Snow  
Snow 0.00 in 0.00 in 0.00 in ()
Month to date snowfall 0.0 0.0  
Since 1 July snowfall 11.4 9.9  
Snow Depth 0.00 in    
Sea Level Pressure  
Sea Level Pressure 30.22 in    
Wind  
Wind Speed 7 mph (South)    
Max Wind Speed 16 mph    
Max Gust Speed 22 mph    
Visibility 10 miles    
Events      
T = Trace of Precipitation, MM = Missing Value Source: NWS Daily Summary

Daily Weather History Graph

Daily Weather History Graph

Search for Another Location

Airport or City:

Astronomy

May. 01, 2019 Rise Set
Actual Time 6:38 AM EDT 8:16 PM EDT
Civil Twilight 6:11 AM EDT 8:43 PM EDT
Nautical Twilight 5:38 AM EDT 9:16 PM EDT
Astronomical Twilight 5:04 AM EDT 9:51 PM EDT
Moon 5:12 AM EDT (5/1) 5:13 PM EDT (5/1)
Length of Visible Light 14h 31m
Length of Day
13h 37m
Waning Crescent, 11% of the Moon is Illuminated
May 1
Waning Crescent
May 4
New
May 11
First Quarter
May 18
Full
May 26
Last Quarter

Hourly Weather History & Observations

Time (EDT) Temp. Dew Point Humidity Pressure Visibility Wind Dir Wind Speed Gust Speed Precip Events Conditions
12:54 AM 64.9 °F 57.9 °F 78% 30.21 in 10.0 mi SSE 4.6 mph - N/A   Clear
1:54 AM 64.0 °F 57.9 °F 80% 30.21 in 10.0 mi SE 3.5 mph - N/A   Clear
2:54 AM 64.0 °F 57.9 °F 80% 30.19 in 10.0 mi SE 5.8 mph - N/A   Clear
3:54 AM 62.1 °F 57.9 °F 86% 30.20 in 10.0 mi Calm Calm - N/A   Clear
4:54 AM 60.1 °F 57.0 °F 90% 30.21 in 10.0 mi South 3.5 mph - N/A   Clear
5:54 AM 62.1 °F 57.0 °F 84% 30.22 in 10.0 mi SSE 4.6 mph - N/A   Clear
6:54 AM 61.0 °F 57.0 °F 87% 30.24 in 10.0 mi SE 3.5 mph - N/A   Clear
7:54 AM 61.0 °F 57.0 °F 87% 30.26 in 9.0 mi Calm Calm - N/A   Clear
8:54 AM 64.9 °F 59.0 °F 81% 30.27 in 10.0 mi South 3.5 mph - N/A   Clear
9:54 AM 71.1 °F 60.1 °F 68% 30.27 in 10.0 mi South 15.0 mph 20.7 mph N/A   Partly Cloudy
10:54 AM 73.0 °F 60.1 °F 64% 30.27 in 10.0 mi South 11.5 mph 19.6 mph N/A   Clear
12:54 PM 77.0 °F 57.9 °F 52% 30.25 in 10.0 mi SSW 9.2 mph 16.1 mph N/A   Clear
1:54 PM 79.0 °F 57.9 °F 48% 30.23 in 10.0 mi South 9.2 mph - N/A   Clear
2:54 PM 79.0 °F 55.9 °F 45% 30.22 in 10.0 mi SW 13.8 mph - N/A   Clear
3:54 PM 78.1 °F 55.9 °F 46% 30.21 in 10.0 mi South 16.1 mph - N/A   Clear
4:54 PM 78.1 °F 53.1 °F 42% 30.20 in 10.0 mi SSW 16.1 mph - N/A   Clear
5:54 PM 75.9 °F 55.9 °F 50% 30.19 in 10.0 mi South 13.8 mph - N/A   Clear
6:54 PM 75.0 °F 57.0 °F 53% 30.19 in 10.0 mi South 11.5 mph - N/A   Clear
7:54 PM 72.0 °F 57.0 °F 59% 30.21 in 10.0 mi South 9.2 mph - N/A   Clear
8:54 PM 68.0 °F 57.9 °F 70% 30.23 in 10.0 mi SSE 4.6 mph - N/A   Clear
9:54 PM 68.0 °F 57.9 °F 70% 30.24 in 10.0 mi SE 3.5 mph - N/A   Partly Cloudy
10:54 PM 64.9 °F 59.0 °F 81% 30.24 in 10.0 mi Calm Calm - N/A   Clear
11:54 PM 63.0 °F 59.0 °F 87% 30.22 in 10.0 mi Calm Calm - N/A   Clear